Regional Weather Roundup
Issued by NWS

Home | Current Version | Previous Version | Text Only | Print | Product List | Glossary Off
Versions: 1 2 3 4 5 6 7 8 9 10 11 12 13 14 15 16 17 18 19 20 21 22 23 24 25 26 27 28

000
ASUS43 KDMX 191307
RWRIA

WEATHER ROUNDUP FOR IOWA
NATIONAL WEATHER SERVICE DES MOINES IA
800 AM CDT SAT APR 19 2014

NOTE: "FAIR" INDICATES FEW OR NO CLOUDS BELOW 12,000 FEET WITH NO
SIGNIFICANT WEATHER AND/OR OBSTRUCTIONS TO VISIBILITY.

* - THESE STATIONS ARE NOT NWS STATIONS...THUS NOT UNDER NWS
QUALITY CONTROL.  THEY ALSO DO NOT REPORT WEATHER SUCH
AS PRECIPITATION OR FOG.

IAZ001>003-012>014-020>022-031>034-043>046-191400-
   NORTHWEST IOWA

CITY           SKY/WX    TMP DP  RH WIND       PRES   REMARKS
CARROLL *      SUNNY     50  41  71 SE9       30.12R
CHEROKEE *     SUNNY     50  41  71 S16       30.05F
DENISON *      SUNNY     54  39  58 S21       30.07R
LE MARS *      MOSUNNY   57  41  54 S15G23    30.03R
ORANGE CITY *  SUNNY     54  41  62 S9        30.03R
SHELDON *      SUNNY     52  41  66 S25       30.00F
SIOUX CITY     MOSUNNY   55  42  61 SE10      30.03R
SPENCER        SUNNY     50  40  68 SE22      30.05F
STORM LAKE *   SUNNY     50  41  71 SE12      30.11R
$$

IAZ055>058-069>071-079>083-090>094-191400-
   SOUTHWEST IOWA

CITY           SKY/WX    TMP DP  RH WIND       PRES   REMARKS
ATLANTIC *     SUNNY     55  41  58 S14G21    30.09S
AUDUBON *      SUNNY     55  39  54 S13       30.10S
CLARINDA *     SUNNY     54  41  62 SE9       30.13S
COUNCIL BLFS * SUNNY     54  43  66 S13       30.06R
CRESTON *      SUNNY     50  41  71 SE13      30.14S
HARLAN  *      SUNNY     55  41  58 S14       30.11S
LAMONI         SUNNY     53  40  61 S12       30.15S
RED OAK *      SUNNY     54  41  62 S12       30.09F
SHENANDOAH *   SUNNY     55  41  58 SE14      30.10S
$$

IAZ047>049-059>061-072>074-084-191400-
   CENTRAL IOWA

CITY           SKY/WX    TMP DP  RH WIND       PRES   REMARKS
AMES           MOSUNNY   47  34  60 SE13      30.18R
ANKENY *       SUNNY     48  34  57 SE9G16    30.18R
CHARITON *     SUNNY     52  37  58 SE14      30.18S
DES MOINES     PTSUNNY   51  33  50 SE10      30.18R
GRINNELL*      SUNNY     43  36  75 E14G21    30.23R
KNOXVILLE *    SUNNY     48  34  57 SE15      30.19S
MARSHALLTOWN   SUNNY     43  34  70 SE17      30.22R
NEWTON *       SUNNY     45  37  76 SE15G23   30.22R
PELLA *        SUNNY     46  37  71 SE14      30.22S HAZE
PERRY *          N/A     48  34  57 SE12      30.14S
$$

IAZ004>006-015-016-023>025-035-036-191400-
   NORTH CENTRAL IOWA

CITY           SKY/WX    TMP DP  RH WIND       PRES   REMARKS
ALGONA *       SUNNY     46  34  61 SE22G31   30.13S
CLARION *      SUNNY     45  37  76 SE23G29   30.16F
ESTHERVILLE    SUNNY     45  34  65 S23G35    30.08S
FORT DODGE *   SUNNY     46  32  57 SE10      30.16R
MASON CITY     SUNNY     39  33  79 SE20      30.20F WCI  29
FOREST CITY *  SUNNY     41  36  81 SE18G25   30.17S
IOWA FALLS *     N/A     43  36  75 SE17      30.21S HAZE
$$

IAZ007>011-017>019-026>030-037>042-050>054-066-191400-
   NORTHEAST IOWA

CITY           SKY/WX    TMP DP  RH WIND       PRES   REMARKS
CEDAR RAPIDS   MOSUNNY   40  30  67 SE14      30.27R WCI  32
CHARLES CITY * SUNNY     39  28  65 SE22G29   30.23F WCI  29
CLINTON *      MOSUNNY   39  28  65 SE14      30.35R WCI  31
DECORAH *      SUNNY     37  25  60 SE12G22   30.26F WCI  30
DUBUQUE        MOSUNNY   40  26  57 SE12      30.32R WCI  33
MONTICELLO *   SUNNY     41  27  56 SE13      30.30S
OELWEIN *      SUNNY    N/A N/A N/A SE22      30.27S
WATERLOO       SUNNY     41  27  57 SE21      30.25S
$$

IAZ064-065-067-068-078-191400-
   EAST CENTRAL IOWA

CITY           SKY/WX    TMP DP  RH WIND       PRES   REMARKS
DAVENPORT      PTSUNNY   41  27  57 SE15      30.33S
IOWA CITY      MOSUNNY   40  29  64 SE10      30.31R WCI  33
MT. PLEASANT * PTSUNNY   45  32  61 SE10      30.28S
MUSCATINE *    SUNNY     43  25  49 SE9       30.32R
QUAD CITIES    PTSUNNY   41  28  60 E12       30.32R
$$

IAZ062-063-075>077-085>089-095>099-191400-
   SOUTHEAST IOWA

CITY           SKY/WX    TMP DP  RH WIND       PRES   REMARKS
BURLINGTON     MOSUNNY   44  30  57 SE12      30.28S
FAIRFIELD *    SUNNY     45  34  65 SE15      30.26S
FORT MADISON * SUNNY     46  30  53 SE13G18   30.29S
KEOKUK *       SUNNY     46  36  66 SE12      30.27S
OSKALOOSA *      N/A     45  37  76 SE18G25   30.24S
CENTERVILLE *  SUNNY     48  36  61 SE14      30.22S
OTTUMWA        SUNNY     44  37  76 SE15      30.23S
WASHINGTON *   SUNNY     43  32  65 SE13      30.28S
$$

ABBREVIATIONS USED IN REMARKS
   TC - TEMPERATURES IN CELSIUS
  WCI - WIND CHILL INDEX
   HX - HEAT INDEX
  VSB - VISIBILITY
$$




USA.gov is the U.S. government's official web portal to all federal, state and local government web resources and services.